Station: Tasman Island  

  Atmospheric Gas Attenuation - ITU Rec 676-11   ----------------- dB/100km -----------------
Date Time Temp RH % AH g/m3 Dew Point Wind Direction Speed kph Gust kph Barometer mB Rainfall Since 9am 24GHz 47GHz 76GHz 122GHz 134GHz 241GHz
07/09 02:50 10.4 68 6.56 4.8 9 24 1013.6 0 15.4 23.6 33.3 87.1 75.7 258.5
07/09 02:40 10.4 69 6.65 5.1 9 17 1013.6 0 15.6 23.7 33.7 88.0 76.8 262.5
07/09 02:30 10.4 68 6.56 4.8 11 30 1013.5 0 15.4 23.6 33.3 87.1 75.7 258.4
07/09 02:20 10.4 69 6.65 4.9 20 35 1013.2 0 15.6 23.7 33.6 88.0 76.8 262.4
07/09 02:10 10.3 71 6.8 5.3 4 20 1013.7 0 15.9 24.0 34.3 89.7 78.9 269.6
07/09 02:00 10.2 75 7.14 6 6 17 1014 0 16.6 24.6 35.7 93.4 83.4 285.6
07/09 01:50 10.3 72 6.9 5.6 11 19 1014.2 0 16.1 24.2 34.7 90.8 80.2 274.3
07/09 01:40 10.4 73 7.04 5.8 6 19 1014.3 0 16.4 24.4 35.2 92.2 81.9 280.4
07/09 01:30 10.3 75 7.18 6.1 7 17 1014.3 0 16.7 24.6 35.8 93.8 83.9 287.1
07/09 01:20 10.5 72 6.98 5.7 7 17 1014.4 0 16.3 24.3 34.9 91.4 81.1 277.3
07/09 01:10 10.7 71 6.98 5.7 11 17 1014.5 0 16.3 24.2 34.9 91.2 80.9 276.6
07/09 01:00 10.7 71 6.98 5.7 9 17 1014.5 0 16.3 24.2 34.9 91.2 80.9 276.6
07/09 00:50 10.7 72 7.07 5.9 7 17 1014.6 0 16.5 24.4 35.2 92.2 82.0 280.7
07/09 00:40 10.8 72 7.12 6 4 17 1014.6 0 16.6 24.4 35.4 92.6 82.6 282.7
07/09 00:30 10.9 69 6.86 5.4 9 20 1014.5 0 16.0 24.0 34.3 89.7 79.1 270.5
07/09 00:20 10.9 70 6.96 5.7 7 19 1014.5 0 16.2 24.1 34.7 90.8 80.4 275.0
07/09 00:10 10.8 70 6.92 5.6 7 19 1014.5 0 16.1 24.1 34.6 90.5 80.0 273.5
07/09 00:00 10.9 70 6.96 5.7 9 19 1014.6 0 16.2 24.1 34.7 90.8 80.4 275.0
06/09 23:50 11 69 6.91 5.5 7 17 1014.5 0 16.1 24.0 34.5 90.1 79.6 272.4
06/09 23:40 11.1 69 6.95 5.6 13 20 1014.5 0 16.2 24.1 34.6 90.4 80.1 273.9
06/09 23:30 10.9 71 7.06 5.9 13 19 1014.7 0 16.4 24.3 35.1 91.8 81.7 279.6
06/09 23:20 10.9 70 6.96 5.7 11 19 1014.9 0 16.2 24.1 34.7 90.8 80.4 275.1
06/09 23:10 10.6 72 7.03 5.8 6 19 1015 0 16.4 24.3 35.1 91.9 81.6 279.4
06/09 23:00 10.5 78 7.57 6.8 9 17 1015.1 0 17.5 25.2 37.3 97.8 88.9 304.7
06/09 22:50 10.8 77 7.61 6.9 13 19 1015.2 0 17.6 25.2 37.4 97.9 89.1 305.4
06/09 22:40 10.6 79 7.71 7.1 13 20 1015.4 0 17.8 25.4 37.9 99.2 90.6 310.9
06/09 22:30 10.8 82 8.11 7.9 13 20 1015.5 0 18.7 26.1 39.4 103.3 95.8 328.9
06/09 22:20 10.9 84 8.36 8.3 13 19 1015.6 0 19.2 26.4 40.4 106.0 99.1 340.4
06/09 22:10 10.9 83 8.26 8.1 9 17 1015.7 0 19.0 26.3 40.0 104.9 97.7 335.7
06/09 22:00 11 81 8.11 7.9 6 17 1015.7 0 18.7 26.0 39.3 103.1 95.6 328.2
06/09 21:50 10.6 83 8.1 7.8 2 15 1015.6 0 18.7 26.1 39.5 103.5 95.9 329.3
06/09 21:40 10.5 86 8.34 8.3 0 7 1015.6 0 19.2 26.5 40.5 106.3 99.3 341.2
06/09 21:30 10.4 84 8.1 7.8 2 7 1015.5 0 18.7 26.2 39.6 103.8 96.2 330.2
06/09 21:20 10.4 83 8 7.6 4 15 1015.5 0 18.5 26.0 39.2 102.7 94.8 325.4
06/09 21:10 10.7 82 8.06 7.8 7 15 1015.4 0 18.6 26.0 39.2 102.9 95.2 327.0
06/09 21:00 10.6 85 8.3 8.2 13 24 1015.4 0 19.1 26.4 40.3 105.7 98.6 338.8
06/09 20:50 10.8 87 8.6 8.7 15 22 1015.5 0 19.7 26.9 41.4 108.8 102.5 352.4
06/09 20:40 10.7 89 8.74 9 17 26 1015.3 0 20.0 27.1 42.1 110.5 104.5 359.6
06/09 20:30 10.7 89 8.74 9 17 24 1015.4 0 20.0 27.1 42.1 110.5 104.6 359.6
06/09 20:20 10.7 88 8.65 8.8 17 28 1015.4 0 19.8 27.0 41.7 109.5 103.3 355.2
06/09 20:10 10.6 87 8.49 8.5 17 24 1015.5 0 19.5 26.7 41.1 107.8 101.2 348.0
06/09 20:00 10.7 87 8.55 8.6 15 24 1015.7 0 19.6 26.8 41.3 108.4 102.0 350.5
06/09 19:50 10.7 86 8.45 8.5 15 26 1015.7 0 19.4 26.7 40.9 107.3 100.6 345.7
06/09 19:40 10.6 87 8.49 8.5 17 26 1015.8 0 19.5 26.8 41.1 107.9 101.3 348.1
06/09 19:30 10.6 87 8.49 8.5 17 30 1015.8 0 19.5 26.8 41.1 107.9 101.3 348.1
06/09 19:20 10.7 89 8.74 9 19 26 1015.9 0 20.0 27.2 42.1 110.5 104.6 359.7
06/09 19:10 10.6 90 8.79 9 19 28 1015.9 0 20.2 27.3 42.4 111.2 105.4 362.6
06/09 19:00 10.6 90 8.79 9 19 28 1015.9 0 20.2 27.3 42.4 111.2 105.4 362.6
06/09 18:50 10.6 89 8.69 8.9 19 28 1015.9 0 19.9 27.1 41.9 110.1 104.0 357.8
06/09 18:40 10.7 88 8.65 8.8 19 26 1015.9 0 19.8 27.0 41.7 109.5 103.3 355.4
06/09 18:30 10.6 88 8.59 8.7 19 28 1015.9 0 19.7 26.9 41.5 109.0 102.7 352.9
06/09 18:20 10.7 88 8.65 8.8 19 30 1015.8 0 19.8 27.0 41.7 109.5 103.3 355.3
06/09 18:10 10.7 87 8.55 8.6 19 26 1015.8 0 19.6 26.8 41.3 108.4 102.0 350.5
06/09 18:00 10.6 88 8.59 8.7 17 26 1015.8 0 19.7 26.9 41.5 109.0 102.6 352.9
06/09 17:50 10.8 90 8.9 9.2 15 24 1015.9 0 20.4 27.4 42.7 112.2 106.7 367.1
06/09 17:40 10.8 90 8.9 9.2 13 26 1015.8 0 20.4 27.4 42.7 112.2 106.7 367.0
06/09 17:30 10.9 89 8.85 9.2 13 22 1015.9 0 20.3 27.3 42.5 111.5 105.9 364.1
06/09 17:20 10.9 88 8.75 9 11 20 1015.8 0 20.1 27.1 42.0 110.3 104.5 359.3
06/09 17:10 10.9 89 8.85 9.2 13 22 1015.8 0 20.3 27.3 42.5 111.5 105.8 364.1
06/09 17:00 10.9 89 8.85 9.2 15 22 1015.7 0 20.3 27.3 42.4 111.5 105.8 364.1
06/09 16:50 10.9 88 8.75 9 15 22 1015.7 0 20.1 27.1 42.0 110.3 104.4 359.2
06/09 16:40 11.2 86 8.72 8.9 17 24 1015.6 0 20.0 27.0 41.7 109.6 103.6 356.4
06/09 16:30 11.1 85 8.56 8.7 15 22 1015.7 0 19.6 26.7 41.1 107.9 101.6 349.2
06/09 16:20 11.2 84 8.52 8.6 17 22 1015.7 0 19.5 26.6 40.9 107.3 100.9 346.8
06/09 16:10 11.4 87 8.93 9.3 15 20 1015.9 0 20.4 27.3 42.5 111.7 106.3 365.7
06/09 16:00 11.8 87 9.16 9.7 13 17 1015.8 0 20.9 27.5 43.3 113.7 108.9 374.9
06/09 15:50 11.9 86 9.11 9.6 13 17 1015.9 0 20.8 27.4 43.0 113.0 108.1 372.0
06/09 15:40 11.9 85 9 9.5 13 19 1016 0 20.5 27.2 42.6 111.7 106.6 366.7
06/09 15:30 13.1 81 9.24 9.9 11 17 1016 0 21.0 27.3 42.9 112.7 108.2 372.6
06/09 15:20 13 75 8.51 8.7 11 17 1016.1 0 19.4 26.1 40.0 104.8 98.5 338.5
06/09 15:10 13.3 79 9.13 9.7 9 17 1016.1 0 20.7 27.0 42.3 111.2 106.4 366.4
06/09 15:00 12.7 76 8.46 8.6 7 19 1016.1 0 19.3 26.1 39.9 104.7 98.2 337.5
06/09 14:50 13.4 77 8.95 9.5 7 11 1016 0 20.4 26.7 41.5 109.1 103.8 357.4
06/09 14:40 13.8 71 8.46 8.6 7 13 1015.9 0 19.3 25.8 39.4 103.2 96.8 332.8
06/09 14:30 13.7 69 8.17 8.1 6 13 1015.9 0 18.7 25.3 38.2 100.3 93.1 319.9
06/09 14:20 14.1 70 8.5 8.7 6 9 1015.9 0 19.4 25.7 39.4 103.3 96.9 333.3
06/09 14:10 13.9 68 8.15 8.1 6 9 1015.9 0 18.6 25.2 38.1 99.8 92.6 318.1
06/09 14:00 13.5 72 8.42 8.6 6 9 1015.9 0 19.2 25.8 39.3 103.2 96.6 332.2
06/09 13:50 13.5 75 8.77 9.2 7 11 1015.9 0 20.0 26.4 40.8 107.0 101.3 348.5
06/09 13:40 13.1 76 8.67 9 7 13 1015.9 0 19.8 26.3 40.6 106.4 100.4 345.5
06/09 13:30 13.1 79 9.02 9.5 6 11 1016 0 20.5 26.9 42.0 110.3 105.2 362.1
06/09 13:20 13.1 81 9.24 9.9 4 11 1016 0 21.0 27.3 42.9 112.7 108.2 372.6
06/09 13:10 13.1 84 9.59 10.5 7 13 1016.1 0 21.7 27.9 44.4 116.6 113.0 389.4
06/09 13:00 13.2 85 9.76 10.7 6 11 1016.1 0 22.1 28.1 45.0 118.4 115.2 397.2
06/09 12:50 13 85 9.64 10.5 6 11 1016.2 0 21.9 28.0 44.6 117.3 113.8 392.4
06/09 12:40 13.3 85 9.82 10.8 6 13 1016.3 0 22.2 28.2 45.2 118.9 115.9 399.7
06/09 12:30 13 84 9.53 10.4 6 15 1016.3 0 21.6 27.8 44.2 116.1 112.3 387.1
06/09 12:20 13.2 84 9.65 10.6 6 13 1016.3 0 21.9 27.9 44.6 117.2 113.7 391.9
06/09 12:10 13 84 9.53 10.4 4 11 1016.3 0 21.6 27.8 44.2 116.1 112.3 387.1
06/09 12:00 12.7 84 9.35 10.1 9 17 1016.3 0 21.2 27.6 43.6 114.5 110.3 379.9
06/09 11:50 13 85 9.64 10.5 9 19 1016.4 0 21.9 28.0 44.7 117.4 113.9 392.5
06/09 11:40 12.9 83 9.36 10.1 6 17 1016.5 0 21.3 27.5 43.5 114.4 110.1 379.4
06/09 11:30 12.7 83 9.24 9.9 6 13 1016.5 0 21.0 27.4 43.1 113.3 108.8 374.6
06/09 11:20 12.7 85 9.46 10.2 4 15 1016.6 0 21.5 27.8 44.1 115.8 111.8 385.3
06/09 11:10 12.7 85 9.46 10.2 6 15 1016.5 0 21.5 27.8 44.1 115.8 111.8 385.3
06/09 11:00 12.9 84 9.47 10.3 4 13 1016.3 0 21.5 27.7 44.0 115.6 111.6 384.7
06/09 10:50 13 85 9.64 10.5 6 15 1016.2 0 21.9 28.0 44.6 117.3 113.8 392.4
06/09 10:40 12.7 86 9.57 10.4 6 13 1016.1 0 21.7 27.9 44.5 117.0 113.3 390.5
06/09 10:30 12.7 87 9.69 10.6 4 15 1015.9 0 22.0 28.1 45.0 118.3 115.0 396.3
06/09 10:20 12.3 87 9.45 10.2 4 17 1016 0 21.5 27.9 44.2 116.2 112.2 386.6

Last Refresh: 07-Sep-2026 02:28:26

Bureau of Meteorology